User: anonymous   Login
Location: Bishopstone
(51.0167°N, 1.9000°W)
Time: 16:06:04
(UTC+00:00)
Language:

Cosmos 407 Rocket - Orbit

View from above orbital plane
View from above orbital plane
View from above satellite
View from above satellite

Ground track
Ground track

The orbit data is extracted from the following two-line orbital elements,

1  5175U 71035B   19321.70815415 +.00000027 +00000-0 +17477-4 0  9990
2  5175 074.0503 023.3763 0029843 010.8493 349.3298 14.37957570541684
Epoch (UTC): 17 November 2019 16:59:44
Eccentricity: 0.0029843
inclination: 74.0503°
perigee height: 744 km
apogee height: 786 km
right ascension of ascending node: 23.3763°
argument of perigee: 10.8493°
revolutions per day: 14.37957570
mean anomaly at epoch: 349.3298°
orbit number at epoch: 54168

The dashed part of the orbit path shows where the satellite is in the earth's shadow,  

DLR